Location: Marsån
(66.4167°N, 22.2833°E)
Time: 11:51:28
(UTC+00:00)

SKYMED 3 - Pass Details

Date: 24 February 2024
Orbit: 565 x 589 km, 97.9° (Epoch: 16 April)

Event Time Altitude Azimuth Distance (km) Brightness Sun altitude
Rises 17:37:10 0° 20° (NNE) 2,845 7.8 -14.0°
Reaches altitude 10° 17:39:23 10° 24° (NNE) 1,936 6.9 -14.2°
Maximum altitude 17:43:32 58° 104° (ESE) 691 4.4 -14.6°
Drops below altitude 10° 17:47:38 10° 185° (S) 1,909 7.0 -15.0°
Sets 17:49:48 0° 189° (S) 2,800 7.9 -15.2°
